Cozumel, Mexico

7:49 PM EST on September 23, 2017 (GMT -0500)
Cozumel

Weather History for MMCZ - January, 2013

Change the Weather History Date:

Friday, January 25, 2013

  Actual Average Record
Temperature  
Mean Temperature 70 °F -  
Max Temperature 77 °F 81 °F 86 °F (1997)
Min Temperature 64 °F 69 °F 57 °F (2017)
Cooling Degree Days 6    
Growing Degree Days 20 (Base 50)    
Moisture  
Dew Point 58 °F    
Average Humidity 65    
Maximum Humidity 83    
Minimum Humidity 50    
Precipitation  
Precipitation 1.00 in - - ()
Sea Level Pressure  
Sea Level Pressure 30.13 in    
Wind  
Wind Speed 8 mph ()    
Max Wind Speed 14 mph    
Max Gust Speed 25 mph    
Visibility 7.2 miles    
Events      
Averages and records for this station are not official NWS values.
T = Trace of Precipitation, MM = Missing Value Source: Averaged Metar Reports

Daily Weather History Graph

Daily Weather History Graph

Search for Another Location

Airport or City:

Trip Planner

Search our weather history database for the weather conditions in past years. The results will help you decide how hot, cold, wet, or windy it might be!

Date:

Astronomy

Jan. 25, 2013 Rise Set
Actual Time 6:25 AM CST 5:34 PM CST
Civil Twilight 6:02 AM CST 5:58 PM CST
Nautical Twilight 5:35 AM CST 6:24 PM CST
Astronomical Twilight 5:09 AM CST 6:51 PM CST
Moon 4:30 PM CST (1/25) 5:03 AM CST (1/25)
Length of Visible Light 11h 55m
Length of Day
11h 09m
Waxing Gibbous, 98% of the Moon is Illuminated
Jan 25
Waxing Gibbous
Jan 26
Full
Feb 3
Last Quarter
Feb 10
New
Feb 17
First Quarter

Hourly Weather History & Observations

Time (CST) Temp. Dew Point Humidity Pressure Visibility Wind Dir Wind Speed Gust Speed Precip Events Conditions
12:40 AM 69.8 °F 59.0 °F 68% 30.15 in 7.0 mi East 9.2 mph - N/A   Mostly Cloudy
1:40 AM 69.8 °F 59.0 °F 68% 30.13 in 7.0 mi East 9.2 mph - N/A   Mostly Cloudy
2:40 AM 69.8 °F 60.8 °F 73% 30.14 in 7.0 mi East 8.1 mph - N/A   Mostly Cloudy
3:40 AM 69.8 °F 57.2 °F 64% 30.11 in 7.0 mi East 5.8 mph - N/A   Scattered Clouds
4:40 AM 68.0 °F 57.2 °F 68% 30.11 in 7.0 mi ENE 5.8 mph - N/A   Scattered Clouds
5:40 AM 68.0 °F 62.6 °F 83% 30.07 in 7.0 mi East 5.8 mph - N/A   Overcast
6:41 AM 66.2 °F 57.2 °F 73% 30.13 in 6.0 mi ENE 8.1 mph - N/A   Mostly Cloudy
7:48 AM 68.0 °F 60.8 °F 78% 30.14 in 6.0 mi East 8.1 mph - N/A   Overcast
8:45 AM 68.0 °F 57.2 °F 68% 30.20 in 7.0 mi East 9.2 mph - N/A   Overcast
9:43 AM 69.8 °F 57.2 °F 64% 30.18 in 7.0 mi East 13.8 mph - N/A   Mostly Cloudy
10:47 AM 75.2 °F 60.8 °F 61% 30.18 in 7.0 mi East 11.5 mph 24.2 mph N/A   Mostly Cloudy
11:49 AM 77.0 °F 57.2 °F 50% 30.13 in 8.0 mi East 11.5 mph 23.0 mph N/A   Scattered Clouds
12:42 PM 75.2 °F 57.2 °F 53% 30.13 in 8.0 mi East 11.5 mph 23.0 mph N/A   Mostly Cloudy
1:43 PM 77.0 °F 62.6 °F 61% 30.11 in 8.0 mi ENE 13.8 mph 25.3 mph N/A   Scattered Clouds
2:46 PM 77.0 °F 57.2 °F 50% 30.12 in 8.0 mi ENE 13.8 mph - N/A   Scattered Clouds
3:40 PM 75.2 °F 57.2 °F 53% 30.10 in 8.0 mi ENE 13.8 mph - N/A   Scattered Clouds
4:40 PM 73.4 °F 57.2 °F 57% 30.11 in 8.0 mi ENE 13.8 mph - N/A   Scattered Clouds
5:44 PM 69.8 °F 55.4 °F 60% 30.07 in 8.0 mi NNE 5.8 mph - N/A   Scattered Clouds
6:48 PM 69.8 °F 57.2 °F 64% 30.12 in 7.0 mi ENE 8.1 mph - N/A   Scattered Clouds
7:45 PM 69.8 °F 59.0 °F 68% 30.13 in 7.0 mi East 4.6 mph - N/A   Scattered Clouds
8:41 PM 68.0 °F 55.4 °F 64% 30.17 in 7.0 mi East 4.6 mph - N/A   Scattered Clouds
9:43 PM 66.2 °F 59.0 °F 78% 30.15 in 7.0 mi East 4.6 mph - N/A   Partly Cloudy
10:45 PM 64.4 °F 53.6 °F 68% 30.15 in 7.0 mi East 4.6 mph - N/A   Partly Cloudy
11:40 PM 64.4 °F 55.4 °F 73% 30.11 in 7.0 mi East 4.6 mph - N/A   Partly Cloudy